Hourly Weather Abdrahimovo

Today, 25 February, Thursday

Time Temperature Precipitation Wind Pressure Humidity
00:00 -31°C° 0 mm 3 mps 749 mmHg 91%
01:00 -30°C° 0 mm 2 mps 750 mmHg 92%
02:00 -31°C° 0 mm 2 mps 750 mmHg 92%
03:00 -31°C° 0 mm 2 mps 751 mmHg 93%
04:00 -30°C° 0 mm 1 mps 751 mmHg 94%
05:00 -31°C° 0 mm 1 mps 751 mmHg 94%
06:00 -31°C° 0 mm 1 mps 752 mmHg 94%
07:00 -31°C° 0 mm 0 mps 752 mmHg 95%
08:00 -29°C° 0 mm 1 mps 752 mmHg 92%
09:00 -27°C° 0 mm 1 mps 752 mmHg 90%
10:00 -24°C° 0 mm 1 mps 753 mmHg 88%
11:00 -23°C° 0 mm 1 mps 752 mmHg 86%
12:00 -21°C° 0 mm 1 mps 752 mmHg 84%
13:00 -19°C° 0 mm 1 mps 752 mmHg 83%
14:00 -19°C° 0 mm 1 mps 752 mmHg 84%
15:00 -18°C° 0 mm 1 mps 752 mmHg 86%
16:00 -18°C° 0 mm 1 mps 752 mmHg 87%
17:00 -19°C° 0 mm 1 mps 752 mmHg 89%
18:00 -21°C° 0 mm 1 mps 752 mmHg 91%
19:00 -23°C° 0 mm 1 mps 752 mmHg 93%
20:00 -23°C° 0 mm 1 mps 752 mmHg 93%
21:00 -24°C° 0 mm 1 mps 752 mmHg 93%
22:00 -25°C° 0 mm 1 mps 752 mmHg 93%
23:00 -25°C° 0 mm 1 mps 752 mmHg 93%

Tomorrow, 26 February, Friday

Time Temperature Precipitation Wind Pressure Humidity
00:00 -27°C° 0 mm 1 mps 751 mmHg 93%
01:00 -27°C° 0 mm 1 mps 751 mmHg 93%
02:00 -27°C° 0 mm 1 mps 751 mmHg 93%
03:00 -28°C° 0 mm 1 mps 751 mmHg 93%
04:00 -28°C° 0 mm 1 mps 751 mmHg 93%
05:00 -28°C° 0 mm 1 mps 750 mmHg 92%
06:00 -28°C° 0 mm 1 mps 750 mmHg 91%
07:00 -28°C° 0 mm 1 mps 749 mmHg 90%
08:00 -25°C° 0 mm 1 mps 749 mmHg 87%
09:00 -23°C° 0 mm 1 mps 749 mmHg 84%
10:00 -20°C° 0 mm 1 mps 749 mmHg 80%
11:00 -19°C° 0 mm 1 mps 749 mmHg 78%
12:00 -19°C° 0 mm 2 mps 748 mmHg 76%
13:00 -17°C° 0 mm 2 mps 747 mmHg 73%
14:00 -15°C° 0 mm 1 mps 747 mmHg 76%
15:00 -14°C° 0 mm 1 mps 747 mmHg 80%
16:00 -14°C° 0 mm 1 mps 747 mmHg 83%
17:00 -15°C° 0 mm 1 mps 746 mmHg 83%
18:00 -17°C° 0 mm 1 mps 746 mmHg 82%
19:00 -18°C° 0 mm 1 mps 746 mmHg 82%
20:00 -18°C° 0 mm 1 mps 745 mmHg 83%
21:00 -18°C° 0 mm 1 mps 745 mmHg 85%
22:00 -18°C° 0 mm 1 mps 745 mmHg 87%
23:00 -19°C° 0 mm 1 mps 744 mmHg 88%

Day after tomorrow, 27 February, Saturday

Time Temperature Precipitation Wind Pressure Humidity
00:00 -19°C° 0 mm 1 mps 743 mmHg 90%
01:00 -23°C° 0 mm 2 mps 742 mmHg 92%
02:00 -23°C° 0 mm 2 mps 741 mmHg 91%
03:00 -23°C° 0 mm 2 mps 741 mmHg 91%
04:00 -23°C° 0 mm 2 mps 740 mmHg 91%
05:00 -23°C° 0 mm 2 mps 739 mmHg 90%
06:00 -23°C° 0 mm 3 mps 738 mmHg 90%
07:00 -22°C° 0 mm 3 mps 737 mmHg 90%
08:00 -21°C° 0.4 mm 3 mps 736 mmHg 92%
09:00 -20°C° 0.4 mm 4 mps 735 mmHg 93%
10:00 -19°C° 0.4 mm 4 mps 735 mmHg 95%
11:00 -18°C° 0.5 mm 4 mps 734 mmHg 94%
12:00 -18°C° 0.5 mm 5 mps 734 mmHg 94%
13:00 -17°C° 0.5 mm 5 mps 733 mmHg 94%
14:00 -15°C° 0.2 mm 5 mps 733 mmHg 93%
15:00 -14°C° 0.2 mm 5 mps 733 mmHg 93%
16:00 -14°C° 0.2 mm 5 mps 733 mmHg 93%
17:00 -14°C° 0.3 mm 4 mps 732 mmHg 94%
18:00 -14°C° 0.3 mm 4 mps 732 mmHg 94%
19:00 -14°C° 0.3 mm 4 mps 732 mmHg 95%
20:00 -13°C° 0.2 mm 3 mps 732 mmHg 95%
21:00 -13°C° 0.2 mm 3 mps 732 mmHg 95%
22:00 -13°C° 0.2 mm 3 mps 732 mmHg 95%
23:00 -12°C° 0.2 mm 2 mps 731 mmHg 95%

28 February, Sunday

Time Temperature Precipitation Wind Pressure Humidity
00:00 -10°C° 0.2 mm 2 mps 731 mmHg 95%
01:00 -10°C° 0.2 mm 2 mps 731 mmHg 95%
02:00 -10°C° 0.2 mm 2 mps 731 mmHg 96%
03:00 -9°C° 0.2 mm 1 mps 731 mmHg 96%
04:00 -8°C° 0.2 mm 1 mps 731 mmHg 96%
05:00 -8°C° 0.1 mm 1 mps 731 mmHg 96%
06:00 -8°C° 0.1 mm 1 mps 731 mmHg 96%
07:00 -8°C° 0.1 mm 1 mps 731 mmHg 96%
08:00 -7°C° 0.2 mm 1 mps 731 mmHg 95%
09:00 -6°C° 0.2 mm 1 mps 731 mmHg 95%
10:00 -4°C° 0.2 mm 1 mps 732 mmHg 94%
11:00 -5°C° 0.2 mm 2 mps 732 mmHg 94%
12:00 -4°C° 0.2 mm 2 mps 732 mmHg 95%
13:00 -3°C° 0.2 mm 2 mps 733 mmHg 95%
14:00 -3°C° 0.2 mm 2 mps 733 mmHg 95%
15:00 -4°C° 0.2 mm 3 mps 733 mmHg 95%
16:00 -4°C° 0.2 mm 3 mps 734 mmHg 95%
17:00 -6°C° 0.1 mm 3 mps 734 mmHg 94%
18:00 -8°C° 0.1 mm 4 mps 734 mmHg 94%
19:00 -10°C° 0.1 mm 4 mps 735 mmHg 93%
20:00 -11°C° 0.1 mm 4 mps 736 mmHg 93%
21:00 -12°C° 0.1 mm 4 mps 736 mmHg 93%
22:00 -15°C° 0.1 mm 4 mps 737 mmHg 93%
23:00 -14°C° 0 mm 3 mps 737 mmHg 93%

1 March, Monday

Time Temperature Precipitation Wind Pressure Humidity
00:00 -15°C° 0 mm 3 mps 737 mmHg 93%
01:00 -16°C° 0 mm 3 mps 738 mmHg 94%
02:00 -17°C° 0.1 mm 3 mps 738 mmHg 94%
03:00 -17°C° 0.1 mm 3 mps 739 mmHg 95%
04:00 -17°C° 0.1 mm 3 mps 739 mmHg 95%
05:00 -18°C° 0.1 mm 3 mps 740 mmHg 95%
06:00 -18°C° 0.1 mm 3 mps 740 mmHg 95%
07:00 -19°C° 0.1 mm 3 mps 740 mmHg 95%
08:00 -18°C° 0.1 mm 3 mps 741 mmHg 94%
09:00 -18°C° 0.1 mm 3 mps 741 mmHg 94%
10:00 -17°C° 0.1 mm 3 mps 741 mmHg 93%
11:00 -16°C° 0.1 mm 3 mps 742 mmHg 92%
12:00 -14°C° 0.1 mm 2 mps 742 mmHg 91%
13:00 -13°C° 0.1 mm 2 mps 742 mmHg 90%
14:00 -13°C° 0.1 mm 2 mps 742 mmHg 90%
15:00 -13°C° 0.1 mm 2 mps 742 mmHg 90%
16:00 -13°C° 0.1 mm 2 mps 742 mmHg 91%
17:00 -14°C° 0.1 mm 2 mps 743 mmHg 92%
18:00 -15°C° 0.1 mm 2 mps 743 mmHg 94%
19:00 -15°C° 0.1 mm 2 mps 743 mmHg 96%
20:00 -15°C° 0 mm 1 mps 743 mmHg 96%
21:00 -16°C° 0 mm 1 mps 743 mmHg 97%
22:00 -17°C° 0 mm 0 mps 743 mmHg 98%
23:00 -18°C° 0 mm 0 mps 743 mmHg 98%

2 March, Tuesday

Time Temperature Precipitation Wind Pressure Humidity
00:00 -19°C° 0 mm 0 mps 743 mmHg 99%
01:00 -19°C° 0 mm 0 mps 743 mmHg 99%
02:00 -19°C° 0 mm 1 mps 742 mmHg 99%
03:00 -19°C° 0 mm 1 mps 742 mmHg 99%
04:00 -19°C° 0 mm 1 mps 742 mmHg 99%
05:00 -21°C° 0 mm 2 mps 741 mmHg 98%
06:00 -20°C° 0 mm 2 mps 741 mmHg 97%
07:00 -22°C° 0 mm 3 mps 741 mmHg 96%
08:00 -21°C° 0 mm 3 mps 740 mmHg 94%
09:00 -20°C° 0 mm 4 mps 740 mmHg 93%
10:00 -19°C° 0 mm 4 mps 739 mmHg 91%
11:00 -18°C° 0 mm 5 mps 739 mmHg 90%
12:00 -17°C° 0 mm 5 mps 738 mmHg 89%
13:00 -15°C° 0 mm 5 mps 738 mmHg 87%
14:00 -14°C° 0 mm 5 mps 737 mmHg 87%
15:00 -14°C° 0 mm 5 mps 736 mmHg 86%
16:00 -15°C° 0 mm 6 mps 736 mmHg 86%
17:00 -14°C° 0.1 mm 5 mps 736 mmHg 88%
18:00 -14°C° 0.1 mm 5 mps 735 mmHg 89%
19:00 -14°C° 0.1 mm 5 mps 735 mmHg 91%
20:00 -15°C° 0.1 mm 5 mps 735 mmHg 91%
21:00 -17°C° 0.1 mm 5 mps 734 mmHg 91%
22:00 -17°C° 0.1 mm 5 mps 734 mmHg 91%
23:00 -18°C° 0.2 mm 5 mps 734 mmHg 92%
Show more

We Need Your Consent

Meteoprog and our Service Providers may store and access personal data such as cookies, device identifiers or other similar technologies on your device and process such data to personalise content and ads, as well as provide social media features and to analyse the traffic.

  • Store and/or access information on your device

    Cookies, device identifiers or other information can be stored or accessed on your device for the purposes indicated above.

  • Personalised ads and content, ad and content measurement, audience insights, and products development

    Ads and content can be personalised based on a profile. More data can be added to better personalise ads and content. Ad and content performance can be measured. Insights about the audience who saw the ads and content can be derived. Such data can be used to develop or improve user’s experience, systems and software.

By clicking ‘I Agree’ you will allow the use of indicated cookies, device identifiers, web beacons or other similar technologies. Your settings can be changed in the browser on your device.

For certain purposes, legitimate interests may be relied on, rather than consent. You can read more about this in our Privacy and Cookie Policy.